Regional Weather Roundup
Issued by NWS

Home | Current Version | Previous Version | Text Only | Print | Product List | Glossary On
Versions: 1 2 3 4 5 6 7 8 9 10 11 12 13 14 15 16 17 18 19 20 21 22 23 24 25 26 27 28 29 30 31 32 33 34 35 36 37 38 39 40 41 42 43 44 45 46 47 48 49 50
000
ASUS43 KLOT 012312
RWRIL

ILLINOIS REGIONAL WEATHER ROUNDUP
NATIONAL WEATHER SERVICE CHICAGO/ROMEOVILLE IL
600 PM CDT WED JUL 01 2015

NOTE: "FAIR" INDICATES FEW OR NO CLOUDS BELOW 12,000 FEET WITH NO
SIGNIFICANT WEATHER AND/OR OBSTRUCTIONS TO VISIBILITY.

* THESE STATIONS ARE NOT UNDER NWS QUALITY CONTROL. THEY ALSO MAY NOT
  REPORT WEATHER SUCH AS PRECIPITATION OR FOG.

ILZ001-002-007-009-015-016-024-020000-
NORTHWEST ILLINOIS

CITY           SKY/WX    TMP DP  RH WIND       PRES   REMARKS
MOLINE         MOSUNNY   74  60  61 MISG      29.92S
STERLING*      PTSUNNY   70  55  60 NE6       29.94F
SAVANNA*       CLOUDY    70  56  61 N3        29.95S
$$

ILZ003-004-008-010-011-017-018-020000-
NORTH CENTRAL ILLINOIS

CITY           SKY/WX    TMP DP  RH WIND       PRES   REMARKS
ROCKFORD       CLOUDY    70  50  49 NE8       29.96F
FREEPORT*      CLOUDY    67  51  56 NE7       29.98R
ROCHELLE*      PTSUNNY   69  54  58 NE9       29.94F
DE KALB*       PTSUNNY   67  52  58 N8        29.96S
PERU*          MOSUNNY   73  56  56 NE6       29.93S
$$

ILZ005-006-012>014-019>023-020000-
NORTHEAST ILLINOIS

CITY           SKY/WX    TMP DP  RH WIND       PRES   REMARKS
CHICAGO-OHARE  PTSUNNY   61  50  67 NE9       29.98R
CHICAGO-MIDWAY PTSUNNY   63  52  67 E10       29.97R
AURORA         MOSUNNY   69  55  60 NE10      29.95R
LANSING*       MOSUNNY   61  49  65 NE8       29.97R
JOLIET*        MOSUNNY   68  58  68 E10       29.95R
WAUKEGAN       PTSUNNY   54  50  86 NE7       29.99S
DUPAGE AIRPORT MOSUNNY   64  53  67 NE12      29.96R
KANKAKEE*      PTSUNNY   68  59  71 NE12      29.94S
WHEELING       PTSUNNY   59  49  69 NE8       29.99S
MORRIS*        MOSUNNY   70  58  66 E9        29.93R
ROMEOVILLE*    MOSUNNY   65  53  65 E13       29.96R
NORTHERLY ISL    N/A     59  51  75 NE6         N/A
$$

LMZ740>746-020000-
SOUTHERN LAKE MICHIGAN

STATION/POSITION SKY/WX   TEMP    WIND        PRES    VSBY  WAVE
                          AIR SEA DIR/SP/G                  HT/PER
                          (F)     (DEG/KT/KT) (MB)    (MI)  (FT/S)
HARRISON CRIB              56      50/  8/ 10   N/A
BURNHAM HARBOR             58      30/  8/ 10   N/A
CALUMET HARBOR             58      40/  7/ 10   N/A
BURNS HARBOR               60      50/ 10/ 14 1015.2F
MICHIGAN CITY              58      20/ 11/ 13   N/A
MICHIGAN CITY 6N           59 65   50/ 10/ 14   N/A           3/ 5
ST. JOSEPH                 58 63                N/A           3/ 4
$$

ILZ025>027-034>036-040-047-049-050-058-095>099-020000-
WEST-CENTRAL ILLINOIS

CITY           SKY/WX    TMP DP  RH WIND       PRES   REMARKS
QUINCY         CLOUDY    77  70  79 NE16      29.87R HAZE
GALESBURG*     PTSUNNY   73  64  71 NE10      29.92R
MACOMB*        CLOUDY    73  66  78 E8        29.92S
JACKSONVILLE*  CLOUDY    79  72  79 NE7       29.87R HX  82
PITTSFIELD*    PTSUNNY   82  70  67 CALM      29.88R HX  85
$$

ILZ028>032-037-038-041>044-048-051>054-059>061-020000-
CENTRAL ILLINOIS

CITY           SKY/WX    TMP DP  RH WIND       PRES   REMARKS
PONTIAC        CLOUDY    73  64  71 E8        29.93S
BLOOMINGTON    CLOUDY    74  65  73 NE15      29.93R
DECATUR        CLOUDY    76  67  73 NE10      29.89R HAZE
PEORIA         CLOUDY    76  64  66 NE13      29.91R
LACON*         PTSUNNY   73  61  66 NE5       29.91F
LINCOLN*       CLOUDY    76  65  68 NE9       29.90R
SPRINGFIELD    CLOUDY    78  69  73 NE10      29.88S HAZE    HX  80
TAYLORVILLE    CLOUDY    77  70  78 NE8       29.87S
$$

ILZ033-039-045-046-055>057-062-063-020000-
EAST-CENTRAL ILLINOIS

CITY           SKY/WX    TMP DP  RH WIND       PRES   REMARKS
CHAMPAIGN      PTSUNNY   74  64  71 E7        29.90S
DANVILLE*      PTSUNNY   72  64  76 E5        29.88S
RANTOUL*       CLOUDY    75  65  70 NE9       29.91R
MATTOON        PTSUNNY   76  69  79 E7        29.88R
PARIS*         MOSUNNY   76  68  78 NE7       29.89S
$$

ILZ079-100>102-020000-
SOUTHWEST ILLINOIS

CITY           SKY/WX    TMP DP  RH WIND       PRES   REMARKS
ALTON          PTSUNNY   81  75  83 SW3       29.87R HX  86
BELLEVILLE     CLOUDY    82  72  69 CALM      29.85R HX  87
CAHOKIA*       CLOUDY    84  69  60 E6        29.85R HX  88
SPARTA*        MOSUNNY   83  69  62 SW5       29.87F HX  86
$$

ILZ064>066-069>071-074>076-080>082-084>086-088>090-092>094-020000-
SOUTH-CENTRAL ILLINOIS

CITY           SKY/WX    TMP DP  RH WIND       PRES   REMARKS
CARBONDALE     MOSUNNY   82  69  64 S8        29.88F HX  85
CAIRO*         MOSUNNY   79  70  74 SW9       29.90S HX  82
EFFINGHAM*     CLOUDY    81  65  58 CALM      29.88S HX  82
MARION         MOSUNNY   82  70  65 S6        29.90S HX  86
MT. VERNON     MOSUNNY   81  68  65 S7        29.87F HX  83
CENTRALIA*     PTSUNNY   82  67  61 SW3       29.87S HX  84
SALEM*         PTSUNNY   83  68  60 CALM      29.87S HX  86
METROPOLIS*    CLOUDY    82  70  66 SW9G18    29.91S HX  85
$$

ILZ067-068-072-073-078-083-087-091-020000-
SOUTHEAST ILLINOIS

CITY           SKY/WX    TMP DP  RH WIND       PRES   REMARKS
LAWRENCEVILLE  PTSUNNY   79  69  71 E7        29.86S HX  81
FLORA*         SUNNY     82  67  60 CALM      29.87R HX  84
FAIRFIELD*     CLOUDY    82  69  64 SW3       29.86S HX  84
HARRISBURG*    PTSUNNY   80  69  68 SW5       29.91R HX  83
ROBINSON*      MOSUNNY   78  69  73 E6        29.87S HX  80
CARMI*         PTSUNNY   81  63  53 SW10      29.88R HX  82
$$

ABBREVIATIONS USED IN REMARKS
   TC - TEMPERATURE IN CELSIUS
  WCI - WIND CHILL INDEX
   HX - HEAT INDEX
  VSB - VISIBILITY
$$



USA.gov is the U.S. government's official web portal to all federal, state and local government web resources and services.